Time,TemperatureF,DewpointF,PressureIn,WindDirection,WindDirectionDegrees,WindSpeedMPH,WindSpeedGustMPH,Humidity,HourlyPrecipIn,Conditions,Clouds,dailyrainin,SoftwareType,DateUTC
2013-01-29 00:01:00,38.8,33.5,29.96,NW,315,0.0,0.0,81,0.00,,---,0.01,VWS V14.00,2013-01-29 08:01:00,
2013-01-29 00:06:00,38.6,33.3,29.96,NW,315,0.0,0.0,81,0.00,,---,0.00,VWS V14.00,2013-01-29 08:06:00,
2013-01-29 00:11:00,38.5,33.2,29.96,NW,315,0.0,0.0,81,0.00,,---,0.00,VWS V14.00,2013-01-29 08:11:00,
2013-01-29 00:16:00,38.3,33.3,29.96,NW,315,0.0,0.0,82,0.00,,---,0.00,VWS V14.00,2013-01-29 08:16:00,
2013-01-29 00:21:00,38.2,33.2,29.96,NW,315,0.0,0.0,82,0.00,,---,0.00,VWS V14.00,2013-01-29 08:21:00,
2013-01-29 00:26:00,38.0,33.0,29.96,NW,315,0.0,0.0,82,0.00,,---,0.00,VWS V14.00,2013-01-29 08:26:00,
2013-01-29 00:31:00,37.8,33.1,29.96,NW,315,0.0,0.0,83,0.00,,---,0.00,VWS V14.00,2013-01-29 08:31:00,
2013-01-29 00:36:00,37.8,33.1,29.96,NW,315,0.0,0.0,83,0.00,,---,0.00,VWS V14.00,2013-01-29 08:36:00,
2013-01-29 00:41:00,37.6,32.9,29.96,NW,315,0.0,0.0,83,0.00,,---,0.00,VWS V14.00,2013-01-29 08:41:00,
2013-01-29 00:46:00,37.5,32.8,29.96,NW,315,0.0,0.0,83,0.00,,---,0.00,VWS V14.00,2013-01-29 08:46:00,
2013-01-29 00:51:00,37.3,32.9,29.96,NW,315,0.0,0.0,84,0.00,,---,0.00,VWS V14.00,2013-01-29 08:51:00,
2013-01-29 00:56:00,37.2,32.8,29.96,NW,315,0.0,0.0,84,0.00,,---,0.00,VWS V14.00,2013-01-29 08:56:00,
2013-01-29 01:01:00,37.0,32.6,29.96,NW,315,0.0,0.0,84,0.00,,---,0.00,VWS V14.00,2013-01-29 09:01:00,
2013-01-29 01:06:00,36.9,32.5,29.96,NW,315,0.0,0.0,84,0.00,,---,0.00,VWS V14.00,2013-01-29 09:06:00,
2013-01-29 01:11:00,36.9,32.5,29.96,NW,315,0.0,0.0,84,0.00,,---,0.00,VWS V14.00,2013-01-29 09:11:00,
2013-01-29 01:16:00,36.8,32.4,29.96,NW,315,0.0,0.0,84,0.00,,---,0.00,VWS V14.00,2013-01-29 09:16:00,
2013-01-29 01:21:00,36.6,32.5,29.96,NW,315,0.0,0.0,85,0.00,,---,0.00,VWS V14.00,2013-01-29 09:21:00,
2013-01-29 01:26:00,36.5,32.4,29.96,NW,315,0.0,0.0,85,0.00,,---,0.00,VWS V14.00,2013-01-29 09:26:00,
2013-01-29 01:31:00,36.5,32.4,29.96,NW,315,0.0,0.0,85,0.00,,---,0.00,VWS V14.00,2013-01-29 09:31:00,
2013-01-29 01:36:00,36.3,32.2,29.96,NW,315,0.0,0.0,85,0.00,,---,0.00,VWS V14.00,2013-01-29 09:36:00,
2013-01-29 01:41:00,36.2,32.1,29.96,NW,315,0.0,0.0,85,0.00,,---,0.00,VWS V14.00,2013-01-29 09:41:00,
2013-01-29 01:46:00,36.0,31.9,29.96,NW,315,0.0,0.0,85,0.00,,---,0.00,VWS V14.00,2013-01-29 09:46:00,
2013-01-29 01:51:00,35.9,32.1,29.97,NW,315,0.0,0.0,86,0.00,,---,0.00,VWS V14.00,2013-01-29 09:51:00,
2013-01-29 01:56:00,35.9,32.1,29.97,NW,315,0.0,0.0,86,0.00,,---,0.00,VWS V14.00,2013-01-29 09:56:00,
2013-01-29 02:01:00,35.8,31.7,29.97,NW,315,0.0,0.0,85,0.00,,---,0.00,VWS V14.00,2013-01-29 10:01:00,
2013-01-29 02:06:00,35.6,31.8,29.96,NW,315,0.0,0.0,86,0.00,,---,0.00,VWS V14.00,2013-01-29 10:06:00,
2013-01-29 02:11:00,35.6,31.8,29.96,NW,315,0.0,0.0,86,0.00,,---,0.00,VWS V14.00,2013-01-29 10:11:00,
2013-01-29 02:16:00,35.6,31.8,29.96,NW,315,0.0,0.0,86,0.00,,---,0.00,VWS V14.00,2013-01-29 10:16:00,
2013-01-29 02:21:00,35.5,31.7,29.96,NW,315,0.0,0.0,86,0.00,,---,0.00,VWS V14.00,2013-01-29 10:21:00,
2013-01-29 02:26:00,35.3,31.5,29.96,NW,315,0.0,0.0,86,0.00,,---,0.00,VWS V14.00,2013-01-29 10:26:00,
2013-01-29 02:31:00,35.3,31.5,29.96,NW,315,0.0,0.0,86,0.00,,---,0.00,VWS V14.00,2013-01-29 10:31:00,
2013-01-29 02:36:00,35.2,31.4,29.96,NW,315,0.0,0.0,86,0.00,,---,0.00,VWS V14.00,2013-01-29 10:36:00,
2013-01-29 02:41:00,35.0,31.2,29.96,NW,315,0.0,0.0,86,0.00,,---,0.00,VWS V14.00,2013-01-29 10:41:00,
2013-01-29 02:46:00,35.0,31.2,29.96,NW,315,0.0,0.0,86,0.00,,---,0.00,VWS V14.00,2013-01-29 10:46:00,
2013-01-29 02:51:00,34.9,31.1,29.96,NW,315,0.0,0.0,86,0.00,,---,0.00,VWS V14.00,2013-01-29 10:51:00,
2013-01-29 02:56:00,34.9,31.4,29.96,NW,315,0.0,0.0,87,0.00,,---,0.00,VWS V14.00,2013-01-29 10:56:00,
2013-01-29 03:01:00,35.0,31.5,29.96,NW,315,0.0,0.0,87,0.00,,---,0.00,VWS V14.00,2013-01-29 11:01:00,
2013-01-29 03:06:00,35.0,31.5,29.96,NW,315,0.0,0.0,87,0.00,,---,0.00,VWS V14.00,2013-01-29 11:06:00,
2013-01-29 03:11:00,34.9,31.4,29.96,NW,315,0.0,0.0,87,0.00,,---,0.00,VWS V14.00,2013-01-29 11:11:00,
2013-01-29 03:16:00,34.9,31.1,29.96,NW,315,0.0,0.0,86,0.00,,---,0.00,VWS V14.00,2013-01-29 11:16:00,
2013-01-29 03:21:00,34.7,31.2,29.97,NW,315,0.0,0.0,87,0.00,,---,0.00,VWS V14.00,2013-01-29 11:21:00,
2013-01-29 03:25:00,34.7,31.2,29.97,NW,315,0.0,0.0,87,0.00,,---,0.00,VWS V14.00,2013-01-29 11:25:00,
2013-01-29 03:30:00,34.7,31.2,29.97,NW,315,0.0,0.0,87,0.00,,---,0.00,VWS V14.00,2013-01-29 11:30:00,
2013-01-29 03:35:00,34.9,31.4,29.96,NW,315,0.0,0.0,87,0.00,,---,0.00,VWS V14.00,2013-01-29 11:35:00,
2013-01-29 03:40:00,34.9,31.4,29.96,NW,315,0.0,0.0,87,0.00,,---,0.00,VWS V14.00,2013-01-29 11:40:00,
2013-01-29 03:45:00,34.9,31.7,29.96,NW,315,0.0,0.0,88,0.00,,---,0.00,VWS V14.00,2013-01-29 11:45:00,
2013-01-29 03:50:00,34.9,31.4,29.96,NW,315,0.0,0.0,87,0.00,,---,0.00,VWS V14.00,2013-01-29 11:50:00,
2013-01-29 03:55:00,34.9,31.4,29.96,NW,315,0.0,0.0,87,0.00,,---,0.00,VWS V14.00,2013-01-29 11:55:00,
2013-01-29 04:00:00,34.9,31.4,29.96,NW,315,0.0,0.0,87,0.00,,---,0.00,VWS V14.00,2013-01-29 12:00:00,
2013-01-29 04:05:00,34.9,31.4,29.96,NW,315,0.0,0.0,87,0.00,,---,0.00,VWS V14.00,2013-01-29 12:05:00,
2013-01-29 04:10:00,35.0,31.5,29.96,NW,315,0.0,0.0,87,0.00,,---,0.00,VWS V14.00,2013-01-29 12:10:00,
2013-01-29 04:15:00,35.0,31.5,29.96,NW,315,0.0,0.0,87,0.00,,---,0.00,VWS V14.00,2013-01-29 12:15:00,
2013-01-29 04:20:00,35.0,31.5,29.96,NW,315,0.0,0.0,87,0.00,,---,0.00,VWS V14.00,2013-01-29 12:20:00,
2013-01-29 04:25:00,35.0,31.5,29.96,NW,315,0.0,0.0,87,0.00,,---,0.00,VWS V14.00,2013-01-29 12:25:00,
2013-01-29 04:30:00,35.0,31.5,29.96,NW,315,0.0,0.0,87,0.00,,---,0.00,VWS V14.00,2013-01-29 12:30:00,
2013-01-29 04:35:00,35.0,31.5,29.96,NW,315,0.0,0.0,87,0.00,,---,0.00,VWS V14.00,2013-01-29 12:35:00,
2013-01-29 04:40:00,35.2,31.7,29.96,NW,315,0.0,0.0,87,0.00,,---,0.00,VWS V14.00,2013-01-29 12:40:00,
2013-01-29 04:45:00,35.2,31.7,29.96,NW,315,0.0,0.0,87,0.00,,---,0.00,VWS V14.00,2013-01-29 12:45:00,
2013-01-29 04:50:00,35.3,31.8,29.97,NW,315,0.0,0.0,87,0.00,,---,0.00,VWS V14.00,2013-01-29 12:50:00,
2013-01-29 04:55:00,35.3,31.8,29.97,NW,315,0.0,0.0,87,0.00,,---,0.00,VWS V14.00,2013-01-29 12:55:00,
2013-01-29 05:00:00,35.3,31.8,29.97,NW,315,0.0,0.0,87,0.00,,---,0.00,VWS V14.00,2013-01-29 13:00:00,
2013-01-29 05:05:00,35.5,32.0,29.97,NW,315,0.0,0.0,87,0.00,,---,0.00,VWS V14.00,2013-01-29 13:05:00,
2013-01-29 05:10:00,35.5,32.0,29.97,NW,315,0.0,0.0,87,0.00,,---,0.00,VWS V14.00,2013-01-29 13:10:00,
2013-01-29 05:15:00,35.5,32.0,29.97,NW,315,0.0,0.0,87,0.00,,---,0.00,VWS V14.00,2013-01-29 13:15:00,
2013-01-29 05:20:00,35.5,31.7,29.98,NW,315,0.0,0.0,86,0.00,,---,0.00,VWS V14.00,2013-01-29 13:20:00,
2013-01-29 05:25:00,35.5,31.7,29.98,NW,315,0.0,0.0,86,0.00,,---,0.00,VWS V14.00,2013-01-29 13:25:00,
2013-01-29 05:30:00,35.5,31.7,29.98,NW,315,0.0,0.0,86,0.00,,---,0.00,VWS V14.00,2013-01-29 13:30:00,
2013-01-29 05:35:00,35.5,32.0,29.98,NW,315,0.0,0.0,87,0.00,,---,0.00,VWS V14.00,2013-01-29 13:35:00,
2013-01-29 05:40:00,35.5,32.0,29.98,NW,315,0.0,0.0,87,0.00,,---,0.00,VWS V14.00,2013-01-29 13:40:00,
2013-01-29 05:45:00,35.5,32.0,29.98,NW,315,0.0,0.0,87,0.00,,---,0.00,VWS V14.00,2013-01-29 13:45:00,
2013-01-29 05:50:00,35.5,32.0,29.98,NW,315,0.0,0.0,87,0.00,,---,0.00,VWS V14.00,2013-01-29 13:50:00,
2013-01-29 05:55:00,35.3,31.8,29.98,NW,315,0.0,0.0,87,0.00,,---,0.00,VWS V14.00,2013-01-29 13:55:00,
2013-01-29 06:00:00,35.3,31.8,29.98,NW,315,0.0,0.0,87,0.00,,---,0.00,VWS V14.00,2013-01-29 14:00:00,
2013-01-29 06:05:00,35.3,31.8,29.99,NW,315,0.0,0.0,87,0.00,,---,0.00,VWS V14.00,2013-01-29 14:05:00,
2013-01-29 06:10:00,35.2,31.7,29.99,NW,315,0.0,0.0,87,0.00,,---,0.00,VWS V14.00,2013-01-29 14:10:00,
2013-01-29 06:15:00,35.3,31.8,29.99,NW,315,0.0,0.0,87,0.00,,---,0.00,VWS V14.00,2013-01-29 14:15:00,
2013-01-29 06:20:00,35.3,31.8,29.99,NW,315,0.0,0.0,87,0.00,,---,0.00,VWS V14.00,2013-01-29 14:20:00,
2013-01-29 06:25:00,35.3,31.8,29.99,NW,315,0.0,0.0,87,0.00,,---,0.00,VWS V14.00,2013-01-29 14:25:00,
2013-01-29 06:30:00,35.2,31.7,29.99,NW,315,0.0,0.0,87,0.00,,---,0.00,VWS V14.00,2013-01-29 14:30:00,
2013-01-29 06:35:00,35.2,31.7,29.99,NW,315,0.0,0.0,87,0.00,,---,0.00,VWS V14.00,2013-01-29 14:35:00,
2013-01-29 06:40:00,35.0,31.5,29.99,NW,315,0.0,0.0,87,0.00,,---,0.00,VWS V14.00,2013-01-29 14:40:00,
2013-01-29 06:45:00,35.0,31.8,29.99,NW,315,0.0,0.0,88,0.00,,---,0.00,VWS V14.00,2013-01-29 14:45:00,
2013-01-29 06:50:00,35.0,31.5,30.00,NW,315,0.0,0.0,87,0.00,,---,0.00,VWS V14.00,2013-01-29 14:50:00,
2013-01-29 06:55:00,34.9,31.7,30.00,NW,315,0.0,0.0,88,0.00,,---,0.00,VWS V14.00,2013-01-29 14:55:00,
2013-01-29 07:00:00,34.9,31.7,30.00,NW,315,0.0,0.0,88,0.00,,---,0.00,VWS V14.00,2013-01-29 15:00:00,
2013-01-29 07:05:00,34.9,31.7,30.01,NW,315,0.0,0.0,88,0.00,,---,0.00,VWS V14.00,2013-01-29 15:05:00,
2013-01-29 07:10:00,34.9,31.7,30.01,NW,315,0.0,0.0,88,0.00,,---,0.00,VWS V14.00,2013-01-29 15:10:00,
2013-01-29 07:15:00,34.9,31.7,30.01,NW,315,0.0,0.0,88,0.00,,---,0.00,VWS V14.00,2013-01-29 15:15:00,
2013-01-29 07:20:00,34.7,31.5,30.01,NW,315,0.0,0.0,88,0.00,,---,0.00,VWS V14.00,2013-01-29 15:20:00,
2013-01-29 07:25:00,34.6,31.4,30.01,NW,315,0.0,0.0,88,0.00,,---,0.00,VWS V14.00,2013-01-29 15:25:00,
2013-01-29 07:30:00,34.6,31.4,30.01,NW,315,0.0,0.0,88,0.00,,---,0.00,VWS V14.00,2013-01-29 15:30:00,
2013-01-29 07:35:00,34.6,31.4,30.01,NW,315,0.0,0.0,88,0.00,,---,0.00,VWS V14.00,2013-01-29 15:35:00,
2013-01-29 07:40:00,34.6,31.4,30.01,NW,315,0.0,0.0,88,0.00,,---,0.00,VWS V14.00,2013-01-29 15:40:00,
2013-01-29 07:45:00,34.7,31.5,30.01,NW,315,0.0,0.0,88,0.00,,---,0.00,VWS V14.00,2013-01-29 15:45:00,
2013-01-29 07:50:00,34.9,32.0,30.01,NW,315,0.0,0.0,89,0.00,,---,0.00,VWS V14.00,2013-01-29 15:50:00,
2013-01-29 07:55:00,35.2,32.3,30.01,NW,315,0.0,0.0,89,0.00,,---,0.00,VWS V14.00,2013-01-29 15:55:00,
2013-01-29 08:00:00,35.3,32.4,30.01,NW,315,0.0,0.0,89,0.00,,---,0.00,VWS V14.00,2013-01-29 16:00:00,
2013-01-29 08:05:00,35.6,32.7,30.02,NW,315,0.0,0.0,89,0.00,,---,0.00,VWS V14.00,2013-01-29 16:05:00,
2013-01-29 08:10:00,36.0,33.1,30.02,NW,315,0.0,0.0,89,0.00,,---,0.00,VWS V14.00,2013-01-29 16:10:00,
2013-01-29 08:15:00,36.3,33.1,30.02,NW,315,0.0,0.0,88,0.00,,---,0.00,VWS V14.00,2013-01-29 16:15:00,
2013-01-29 08:20:00,36.6,33.4,30.02,NW,315,0.0,0.0,88,0.00,,---,0.00,VWS V14.00,2013-01-29 16:20:00,
2013-01-29 08:25:00,37.0,33.8,30.02,NW,315,0.0,0.0,88,0.00,,---,0.00,VWS V14.00,2013-01-29 16:25:00,
2013-01-29 08:30:00,37.5,34.0,30.02,NW,315,0.0,0.0,87,0.00,,---,0.00,VWS V14.00,2013-01-29 16:30:00,
2013-01-29 08:35:00,37.9,34.1,30.01,NW,315,0.0,0.0,86,0.00,,---,0.00,VWS V14.00,2013-01-29 16:35:00,
2013-01-29 08:40:00,38.5,34.1,30.01,NW,315,0.0,0.0,84,0.00,,---,0.00,VWS V14.00,2013-01-29 16:40:00,
2013-01-29 08:45:00,39.1,34.4,30.01,NW,315,0.0,1.0,83,0.00,,---,0.00,VWS V14.00,2013-01-29 16:45:00,
2013-01-29 08:50:00,39.6,34.3,30.02,NW,315,0.0,0.0,81,0.00,,---,0.00,VWS V14.00,2013-01-29 16:50:00,
2013-01-29 08:55:00,40.2,34.5,30.02,NW,315,0.0,0.0,80,0.00,,---,0.00,VWS V14.00,2013-01-29 16:55:00,
2013-01-29 09:00:00,40.6,34.6,30.02,NW,315,0.0,0.0,79,0.00,,---,0.00,VWS V14.00,2013-01-29 17:00:00,
2013-01-29 09:05:00,41.2,35.2,30.01,NW,315,0.0,1.0,79,0.00,,---,0.00,VWS V14.00,2013-01-29 17:05:00,
2013-01-29 09:10:00,41.8,35.8,30.01,NW,315,0.0,0.0,79,0.00,,---,0.00,VWS V14.00,2013-01-29 17:10:00,
2013-01-29 09:15:00,42.3,35.9,30.01,NW,315,0.0,1.0,78,0.00,,---,0.00,VWS V14.00,2013-01-29 17:15:00,
2013-01-29 09:20:00,43.1,36.4,30.01,NW,315,0.0,0.0,77,0.00,,---,0.00,VWS V14.00,2013-01-29 17:20:00,
2013-01-29 09:25:00,43.6,36.2,30.01,NW,315,2.0,4.0,75,0.00,,---,0.00,VWS V14.00,2013-01-29 17:25:00,
2013-01-29 09:30:00,44.1,35.7,30.01,NW,315,0.0,5.0,72,0.00,,---,0.00,VWS V14.00,2013-01-29 17:30:00,
2013-01-29 09:35:00,44.5,35.7,30.02,NW,315,0.0,0.0,71,0.00,,---,0.00,VWS V14.00,2013-01-29 17:35:00,
2013-01-29 09:40:00,45.1,36.3,30.02,NW,315,0.0,0.0,71,0.00,,---,0.00,VWS V14.00,2013-01-29 17:40:00,
2013-01-29 09:45:00,45.8,36.6,30.02,NW,315,0.0,0.0,70,0.00,,---,0.00,VWS V14.00,2013-01-29 17:45:00,
2013-01-29 09:50:00,46.4,37.2,30.02,NW,315,0.0,0.0,70,0.00,,---,0.00,VWS V14.00,2013-01-29 17:50:00,
2013-01-29 09:55:00,47.0,37.4,30.02,NW,315,0.0,1.0,69,0.00,,---,0.00,VWS V14.00,2013-01-29 17:55:00,
2013-01-29 10:00:00,47.4,37.0,30.02,NW,315,0.0,0.0,67,0.00,,---,0.00,VWS V14.00,2013-01-29 18:00:00,
2013-01-29 10:05:00,47.7,36.5,30.02,WNW,287,2.0,4.0,65,0.00,,---,0.00,VWS V14.00,2013-01-29 18:05:00,
2013-01-29 10:10:00,48.3,36.3,30.02,NNW,348,3.0,3.0,63,0.00,,---,0.00,VWS V14.00,2013-01-29 18:10:00,
2013-01-29 10:15:00,48.9,36.5,30.02,NNW,343,0.0,2.0,62,0.00,,---,0.00,VWS V14.00,2013-01-29 18:15:00,
2013-01-29 10:20:00,49.4,36.1,30.03,NNW,333,0.0,1.0,60,0.00,,---,0.00,VWS V14.00,2013-01-29 18:20:00,
2013-01-29 10:25:00,49.9,36.2,30.03,NNW,342,2.0,5.0,59,0.00,,---,0.00,VWS V14.00,2013-01-29 18:25:00,
2013-01-29 10:30:00,50.2,36.4,30.03,NNW,342,0.0,1.0,59,0.00,,---,0.00,VWS V14.00,2013-01-29 18:30:00,
2013-01-29 10:35:00,50.8,36.6,30.03,NNW,342,1.0,2.0,58,0.00,,---,0.00,VWS V14.00,2013-01-29 18:35:00,
2013-01-29 10:40:00,51.1,36.4,30.03,NNW,336,0.0,0.0,57,0.00,,---,0.00,VWS V14.00,2013-01-29 18:40:00,
2013-01-29 10:45:00,51.4,35.8,30.03,NW,319,0.0,1.0,55,0.00,,---,0.00,VWS V14.00,2013-01-29 18:45:00,
2013-01-29 10:50:00,51.7,36.5,30.03,West,278,4.0,6.0,56,0.00,,---,0.00,VWS V14.00,2013-01-29 18:50:00,
2013-01-29 10:55:00,51.7,36.5,30.03,NW,315,0.0,3.0,56,0.00,,---,0.00,VWS V14.00,2013-01-29 18:55:00,
2013-01-29 10:59:00,52.0,36.3,30.03,NW,307,0.0,5.0,55,0.00,,---,0.00,VWS V14.00,2013-01-29 18:59:00,
2013-01-29 11:04:00,52.5,36.8,30.03,West,281,0.0,2.0,55,0.00,,---,0.00,VWS V14.00,2013-01-29 19:04:00,
2013-01-29 11:09:00,52.8,36.6,30.03,WNW,297,2.0,6.0,54,0.00,,---,0.00,VWS V14.00,2013-01-29 19:09:00,
2013-01-29 11:14:00,52.9,36.7,30.03,NNW,329,0.0,2.0,54,0.00,,---,0.00,VWS V14.00,2013-01-29 19:14:00,
2013-01-29 11:19:00,53.1,36.4,30.02,NW,307,4.0,7.0,53,0.00,,---,0.00,VWS V14.00,2013-01-29 19:19:00,
2013-01-29 11:24:00,53.3,36.1,30.02,WNW,302,6.0,7.0,52,0.00,,---,0.00,VWS V14.00,2013-01-29 19:24:00,
2013-01-29 11:29:00,53.3,36.1,30.02,North,0,7.0,7.0,52,0.00,,---,0.00,VWS V14.00,2013-01-29 19:29:00,
2013-01-29 11:34:00,53.5,36.3,30.01,NW,318,6.0,6.0,52,0.00,,---,0.00,VWS V14.00,2013-01-29 19:34:00,
2013-01-29 11:39:00,53.8,36.6,30.01,WNW,297,0.0,5.0,52,0.00,,---,0.00,VWS V14.00,2013-01-29 19:39:00,
2013-01-29 11:44:00,54.2,37.0,30.01,WNW,293,3.0,3.0,52,0.00,,---,0.00,VWS V14.00,2013-01-29 19:44:00,
2013-01-29 11:49:00,54.5,36.3,30.00,NNW,343,5.0,8.0,50,0.00,,---,0.00,VWS V14.00,2013-01-29 19:49:00,
2013-01-29 11:54:00,54.8,37.0,30.00,West,267,1.0,6.0,51,0.00,,---,0.00,VWS V14.00,2013-01-29 19:54:00,
2013-01-29 11:58:00,54.7,36.4,30.00,West,271,4.0,10.0,50,0.00,,---,0.00,VWS V14.00,2013-01-29 19:58:00,
2013-01-29 12:03:00,54.7,36.9,30.00,WNW,290,2.0,10.0,51,0.00,,---,0.00,VWS V14.00,2013-01-29 20:03:00,
2013-01-29 12:08:00,54.8,36.5,30.00,WNW,298,2.0,7.0,50,0.00,,---,0.00,VWS V14.00,2013-01-29 20:08:00,
2013-01-29 12:13:00,55.4,36.6,30.00,NW,320,2.0,6.0,49,0.00,,---,0.00,VWS V14.00,2013-01-29 20:13:00,
2013-01-29 12:18:00,55.7,35.8,29.99,WNW,290,5.0,8.0,47,0.00,,---,0.00,VWS V14.00,2013-01-29 20:18:00,
2013-01-29 12:23:00,55.7,35.8,29.99,WNW,286,7.0,8.0,47,0.00,,---,0.00,VWS V14.00,2013-01-29 20:23:00,
2013-01-29 12:28:00,56.0,36.1,29.99,North,358,9.0,10.0,47,0.00,,---,0.00,VWS V14.00,2013-01-29 20:28:00,
2013-01-29 12:33:00,56.2,35.7,29.99,WNW,301,1.0,6.0,46,0.00,,---,0.00,VWS V14.00,2013-01-29 20:33:00,
2013-01-29 12:38:00,56.3,36.3,29.99,NW,311,4.0,7.0,47,0.00,,---,0.00,VWS V14.00,2013-01-29 20:38:00,
2013-01-29 12:43:00,56.5,35.4,29.99,NW,316,4.0,10.0,45,0.00,,---,0.00,VWS V14.00,2013-01-29 20:43:00,
2013-01-29 12:48:00,56.3,35.8,29.98,NW,313,3.0,7.0,46,0.00,,---,0.00,VWS V14.00,2013-01-29 20:48:00,
2013-01-29 12:53:00,56.5,35.4,29.98,NW,311,2.0,13.0,45,0.00,,---,0.00,VWS V14.00,2013-01-29 20:53:00,
2013-01-29 12:58:00,56.6,34.4,29.98,NW,324,6.0,10.0,43,0.00,,---,0.00,VWS V14.00,2013-01-29 20:58:00,
2013-01-29 13:03:00,56.7,35.0,29.97,NNW,342,4.0,12.0,44,0.00,,---,0.00,VWS V14.00,2013-01-29 21:03:00,
2013-01-29 13:08:00,56.9,35.2,29.97,NW,318,4.0,11.0,44,0.00,,---,0.00,VWS V14.00,2013-01-29 21:08:00,
2013-01-29 13:13:00,57.3,35.6,29.97,WNW,283,0.0,9.0,44,0.00,,---,0.00,VWS V14.00,2013-01-29 21:13:00,
2013-01-29 13:18:00,57.5,34.6,29.96,West,271,8.0,11.0,42,0.00,,---,0.00,VWS V14.00,2013-01-29 21:18:00,
2013-01-29 13:23:00,57.5,34.6,29.96,WNW,290,4.0,12.0,42,0.00,,---,0.00,VWS V14.00,2013-01-29 21:23:00,
2013-01-29 13:28:00,57.6,34.1,29.96,West,267,4.0,9.0,41,0.00,,---,0.00,VWS V14.00,2013-01-29 21:28:00,
2013-01-29 13:33:00,57.5,34.0,29.96,NW,320,2.0,8.0,41,0.00,,---,0.00,VWS V14.00,2013-01-29 21:33:00,
2013-01-29 13:38:00,57.5,34.6,29.96,NW,316,0.0,12.0,42,0.00,,---,0.00,VWS V14.00,2013-01-29 21:38:00,
2013-01-29 13:43:00,57.6,34.7,29.96,NNW,331,7.0,10.0,42,0.00,,---,0.00,VWS V14.00,2013-01-29 21:43:00,
2013-01-29 13:48:00,57.5,34.0,29.96,NW,305,4.0,14.0,41,0.00,,---,0.00,VWS V14.00,2013-01-29 21:48:00,
2013-01-29 13:53:00,57.5,34.0,29.96,North,358,1.0,10.0,41,0.00,,---,0.00,VWS V14.00,2013-01-29 21:53:00,
2013-01-29 13:58:00,57.8,34.9,29.96,NNW,345,8.0,15.0,42,0.00,,---,0.00,VWS V14.00,2013-01-29 21:58:00,
2013-01-29 14:02:00,57.6,35.3,29.96,WNW,282,2.0,13.0,43,0.00,,---,0.00,VWS V14.00,2013-01-29 22:02:00,
2013-01-29 14:07:00,57.6,35.3,29.96,WNW,285,4.0,14.0,43,0.00,,---,0.00,VWS V14.00,2013-01-29 22:07:00,
2013-01-29 14:12:00,57.5,35.2,29.96,NNW,330,3.0,16.0,43,0.00,,---,0.00,VWS V14.00,2013-01-29 22:12:00,
2013-01-29 14:17:00,57.6,35.9,29.95,NNW,345,1.0,14.0,44,0.00,,---,0.00,VWS V14.00,2013-01-29 22:17:00,
2013-01-29 14:22:00,58.1,35.7,29.95,NW,322,5.0,11.0,43,0.00,,---,0.00,VWS V14.00,2013-01-29 22:22:00,
2013-01-29 14:27:00,58.3,35.3,29.95,NNW,347,0.0,12.0,42,0.00,,---,0.00,VWS V14.00,2013-01-29 22:27:00,
2013-01-29 14:32:00,58.1,35.7,29.95,NNW,335,6.0,14.0,43,0.00,,---,0.00,VWS V14.00,2013-01-29 22:32:00,
2013-01-29 14:37:00,58.3,35.9,29.95,WNW,284,3.0,12.0,43,0.00,,---,0.00,VWS V14.00,2013-01-29 22:37:00,
2013-01-29 14:42:00,58.4,35.4,29.95,NW,325,2.0,13.0,42,0.00,,---,0.00,VWS V14.00,2013-01-29 22:42:00,
2013-01-29 14:47:00,58.9,35.9,29.94,West,271,6.0,11.0,42,0.00,,---,0.00,VWS V14.00,2013-01-29 22:47:00,
2013-01-29 14:52:00,59.0,36.0,29.94,WNW,289,7.0,14.0,42,0.00,,---,0.00,VWS V14.00,2013-01-29 22:52:00,
2013-01-29 14:57:00,59.0,36.0,29.94,WNW,300,0.0,15.0,42,0.00,,---,0.00,VWS V14.00,2013-01-29 22:57:00,
2013-01-29 15:03:00,59.2,36.1,29.94,NW,310,4.0,12.0,42,0.00,,---,0.00,VWS V14.00,2013-01-29 23:03:00,
2013-01-29 15:07:00,59.3,35.0,29.94,NNW,346,5.0,11.0,40,0.00,,---,0.00,VWS V14.00,2013-01-29 23:07:00,
2013-01-29 15:12:00,59.5,35.2,29.94,NW,326,2.0,11.0,40,0.00,,---,0.00,VWS V14.00,2013-01-29 23:12:00,
2013-01-29 15:17:00,59.5,35.8,29.94,NW,323,1.0,11.0,41,0.00,,---,0.00,VWS V14.00,2013-01-29 23:17:00,
2013-01-29 15:22:00,59.5,35.8,29.94,NW,326,0.0,11.0,41,0.00,,---,0.00,VWS V14.00,2013-01-29 23:22:00,
2013-01-29 15:27:00,59.6,35.9,29.94,NNW,335,2.0,8.0,41,0.00,,---,0.00,VWS V14.00,2013-01-29 23:27:00,
2013-01-29 15:32:00,59.6,36.5,29.94,North,355,0.0,7.0,42,0.00,,---,0.00,VWS V14.00,2013-01-29 23:32:00,
2013-01-29 15:37:00,59.6,35.3,29.94,North,358,1.0,11.0,40,0.00,,---,0.00,VWS V14.00,2013-01-29 23:37:00,
2013-01-29 15:42:00,59.3,35.6,29.94,NNW,337,4.0,12.0,41,0.00,,---,0.00,VWS V14.00,2013-01-29 23:42:00,
2013-01-29 15:47:00,59.2,35.5,29.94,North,349,7.0,11.0,41,0.00,,---,0.00,VWS V14.00,2013-01-29 23:47:00,
2013-01-29 15:52:00,59.2,35.5,29.94,NNW,328,0.0,10.0,41,0.00,,---,0.00,VWS V14.00,2013-01-29 23:52:00,
2013-01-29 15:57:00,59.2,36.1,29.94,NW,311,1.0,7.0,42,0.00,,---,0.00,VWS V14.00,2013-01-29 23:57:00,
2013-01-29 16:02:00,59.2,35.5,29.94,WNW,303,3.0,8.0,41,0.00,,---,0.00,VWS V14.00,2013-01-30 00:02:00,
2013-01-29 16:07:00,58.9,35.3,29.94,NNW,330,6.0,11.0,41,0.00,,---,0.00,VWS V14.00,2013-01-30 00:07:00,
2013-01-29 16:12:00,58.4,35.4,29.94,NNW,333,6.0,9.0,42,0.00,,---,0.00,VWS V14.00,2013-01-30 00:12:00,
2013-01-29 16:17:00,58.3,35.9,29.95,NNW,340,0.0,10.0,43,0.00,,---,0.00,VWS V14.00,2013-01-30 00:17:00,
2013-01-29 16:22:00,58.3,35.9,29.95,NNW,336,0.0,8.0,43,0.00,,---,0.00,VWS V14.00,2013-01-30 00:22:00,
2013-01-29 16:27:00,58.3,35.3,29.95,WNW,301,4.0,9.0,42,0.00,,---,0.00,VWS V14.00,2013-01-30 00:27:00,
2013-01-29 16:32:00,58.1,35.7,29.95,NNW,336,0.0,8.0,43,0.00,,---,0.00,VWS V14.00,2013-01-30 00:32:00,
2013-01-29 16:37:00,58.1,35.7,29.95,NW,307,0.0,5.0,43,0.00,,---,0.00,VWS V14.00,2013-01-30 00:37:00,
2013-01-29 16:42:00,58.1,35.7,29.95,NW,310,2.0,5.0,43,0.00,,---,0.00,VWS V14.00,2013-01-30 00:42:00,
2013-01-29 16:47:00,58.1,36.3,29.94,West,263,2.0,5.0,44,0.00,,---,0.00,VWS V14.00,2013-01-30 00:47:00,
2013-01-29 16:52:00,57.8,36.0,29.94,NW,310,4.0,6.0,44,0.00,,---,0.00,VWS V14.00,2013-01-30 00:52:00,
2013-01-29 16:57:00,57.5,35.8,29.94,NNW,333,1.0,8.0,44,0.00,,---,0.00,VWS V14.00,2013-01-30 00:57:00,
2013-01-29 17:02:00,57.2,36.1,29.94,NNW,348,2.0,8.0,45,0.00,,---,0.00,VWS V14.00,2013-01-30 01:02:00,
2013-01-29 17:07:00,56.7,36.2,29.94,NNW,340,3.0,7.0,46,0.00,,---,0.00,VWS V14.00,2013-01-30 01:07:00,
2013-01-29 17:12:00,56.5,36.0,29.94,NNW,332,1.0,5.0,46,0.00,,---,0.00,VWS V14.00,2013-01-30 01:12:00,
2013-01-29 17:17:00,56.0,36.1,29.94,NW,322,5.0,6.0,47,0.00,,---,0.00,VWS V14.00,2013-01-30 01:17:00,
2013-01-29 17:22:00,55.7,36.3,29.94,NW,321,1.0,1.0,48,0.00,,---,0.00,VWS V14.00,2013-01-30 01:22:00,
2013-01-29 17:27:00,55.4,36.6,29.94,NNW,335,3.0,5.0,49,0.00,,---,0.00,VWS V14.00,2013-01-30 01:27:00,
2013-01-29 17:32:00,55.1,36.3,29.94,NNW,335,0.0,1.0,49,0.00,,---,0.00,VWS V14.00,2013-01-30 01:32:00,
2013-01-29 17:37:00,54.7,36.4,29.94,NNW,335,0.0,0.0,50,0.00,,---,0.00,VWS V14.00,2013-01-30 01:37:00,
2013-01-29 17:42:00,54.4,36.2,29.94,NNW,338,2.0,4.0,50,0.00,,---,0.00,VWS V14.00,2013-01-30 01:42:00,
2013-01-29 17:47:00,54.1,36.4,29.94,NNW,338,0.0,1.0,51,0.00,,---,0.00,VWS V14.00,2013-01-30 01:47:00,
2013-01-29 17:52:00,53.8,36.6,29.94,NNW,338,0.0,1.0,52,0.00,,---,0.00,VWS V14.00,2013-01-30 01:52:00,
2013-01-29 17:57:00,53.5,36.3,29.94,NNW,338,0.0,0.0,52,0.00,,---,0.00,VWS V14.00,2013-01-30 01:57:00,
2013-01-29 18:02:00,53.2,36.5,29.94,NNW,338,0.0,0.0,53,0.00,,---,0.00,VWS V14.00,2013-01-30 02:02:00,
2013-01-29 18:07:00,52.8,36.2,29.95,NNW,338,0.0,0.0,53,0.00,,---,0.00,VWS V14.00,2013-01-30 02:07:00,
2013-01-29 18:12:00,52.5,36.8,29.95,NNW,338,0.0,0.0,55,0.00,,---,0.00,VWS V14.00,2013-01-30 02:12:00,
2013-01-29 18:17:00,52.2,36.5,29.95,NNW,338,0.0,0.0,55,0.00,,---,0.00,VWS V14.00,2013-01-30 02:17:00,
2013-01-29 18:22:00,51.9,37.2,29.97,NNW,338,0.0,0.0,57,0.00,,---,0.00,VWS V14.00,2013-01-30 02:22:00,
2013-01-29 18:27:00,51.4,36.7,29.97,NNW,338,0.0,0.0,57,0.00,,---,0.00,VWS V14.00,2013-01-30 02:27:00,
2013-01-29 18:32:00,50.8,37.0,29.97,NNW,338,0.0,0.0,59,0.00,,---,0.00,VWS V14.00,2013-01-30 02:32:00,
2013-01-29 18:37:00,50.2,36.4,29.97,NNW,338,0.0,0.0,59,0.00,,---,0.00,VWS V14.00,2013-01-30 02:37:00,
2013-01-29 18:42:00,49.8,36.9,29.97,NNW,338,0.0,0.0,61,0.00,,---,0.00,VWS V14.00,2013-01-30 02:42:00,
2013-01-29 18:47:00,49.4,36.9,29.97,NNW,338,0.0,0.0,62,0.00,,---,0.00,VWS V14.00,2013-01-30 02:47:00,
2013-01-29 18:52:00,49.1,36.7,29.97,NNW,338,0.0,0.0,62,0.00,,---,0.00,VWS V14.00,2013-01-30 02:52:00,
2013-01-29 18:57:00,48.8,36.8,29.97,NNW,338,0.0,0.0,63,0.00,,---,0.00,VWS V14.00,2013-01-30 02:57:00,
2013-01-29 19:02:00,48.3,36.7,29.97,NNW,338,0.0,0.0,64,0.00,,---,0.00,VWS V14.00,2013-01-30 03:02:00,
2013-01-29 19:07:00,48.0,36.8,29.98,NNW,338,0.0,0.0,65,0.00,,---,0.00,VWS V14.00,2013-01-30 03:07:00,
2013-01-29 19:12:00,47.7,36.5,29.98,NNW,338,0.0,0.0,65,0.00,,---,0.00,VWS V14.00,2013-01-30 03:12:00,
2013-01-29 19:17:00,47.4,36.6,29.98,NNW,338,0.0,0.0,66,0.00,,---,0.00,VWS V14.00,2013-01-30 03:17:00,
2013-01-29 19:22:00,47.3,36.9,29.97,NNW,338,0.0,0.0,67,0.00,,---,0.00,VWS V14.00,2013-01-30 03:22:00,
2013-01-29 19:27:00,47.0,36.6,29.97,NNW,338,0.0,0.0,67,0.00,,---,0.00,VWS V14.00,2013-01-30 03:27:00,
2013-01-29 19:32:00,46.7,36.7,29.97,NNW,338,0.0,0.0,68,0.00,,---,0.00,VWS V14.00,2013-01-30 03:32:00,
2013-01-29 19:37:00,46.5,36.5,29.98,NNW,338,0.0,1.0,68,0.00,,---,0.00,VWS V14.00,2013-01-30 03:37:00,
2013-01-29 19:42:00,46.4,36.8,29.98,NNW,338,0.0,1.0,69,0.00,,---,0.00,VWS V14.00,2013-01-30 03:42:00,
2013-01-29 19:47:00,46.4,36.4,29.98,NNW,338,0.0,0.0,68,0.00,,---,0.00,VWS V14.00,2013-01-30 03:47:00,
2013-01-29 19:52:00,46.2,36.2,29.99,NNW,338,0.0,0.0,68,0.00,,---,0.00,VWS V14.00,2013-01-30 03:52:00,
2013-01-29 19:57:00,46.1,36.1,29.99,NNW,338,0.0,0.0,68,0.00,,---,0.00,VWS V14.00,2013-01-30 03:57:00,
2013-01-29 20:02:00,46.0,36.4,29.99,NNW,338,0.0,0.0,69,0.00,,---,0.00,VWS V14.00,2013-01-30 04:02:00,
2013-01-29 20:07:00,45.8,36.2,29.99,NNW,338,0.0,0.0,69,0.00,,---,0.00,VWS V14.00,2013-01-30 04:07:00,
2013-01-29 20:12:00,45.7,36.1,29.99,NNW,338,0.0,0.0,69,0.00,,---,0.00,VWS V14.00,2013-01-30 04:12:00,
2013-01-29 20:17:00,45.4,36.2,29.99,NNW,338,0.0,0.0,70,0.00,,---,0.00,VWS V14.00,2013-01-30 04:17:00,
2013-01-29 20:22:00,45.2,36.0,29.99,NNW,338,0.0,0.0,70,0.00,,---,0.00,VWS V14.00,2013-01-30 04:22:00,
2013-01-29 20:27:00,44.9,36.1,29.99,NNW,338,0.0,0.0,71,0.00,,---,0.00,VWS V14.00,2013-01-30 04:27:00,
2013-01-29 20:32:00,44.6,35.8,29.99,NNW,338,0.0,0.0,71,0.00,,---,0.00,VWS V14.00,2013-01-30 04:32:00,
2013-01-29 20:37:00,44.3,35.9,29.99,NNW,338,0.0,0.0,72,0.00,,---,0.00,VWS V14.00,2013-01-30 04:37:00,
2013-01-29 20:42:00,44.2,35.8,29.99,NNW,338,0.0,0.0,72,0.00,,---,0.00,VWS V14.00,2013-01-30 04:42:00,
2013-01-29 20:47:00,44.1,36.0,29.99,NNW,338,0.0,0.0,73,0.00,,---,0.00,VWS V14.00,2013-01-30 04:47:00,
2013-01-29 20:52:00,43.8,35.7,29.99,NNW,338,0.0,0.0,73,0.00,,---,0.00,VWS V14.00,2013-01-30 04:52:00,
2013-01-29 20:57:00,43.6,35.9,29.99,NNW,338,0.0,0.0,74,0.00,,---,0.00,VWS V14.00,2013-01-30 04:57:00,
2013-01-29 21:00:00,43.5,35.8,29.99,NNW,338,0.0,0.0,74,0.00,,---,0.00,VWS V14.00,2013-01-30 05:00:00,
2013-01-29 21:01:00,43.5,35.8,29.99,NNW,338,0.0,0.0,74,0.00,,---,0.00,VWS V14.00,2013-01-30 05:01:00,
2013-01-29 21:03:00,43.3,35.6,29.99,NNW,338,0.0,0.0,74,0.00,,---,0.00,VWS V14.00,2013-01-30 05:03:00,
2013-01-29 21:08:00,43.2,35.5,29.99,NNW,338,0.0,0.0,74,0.00,,---,0.00,VWS V14.00,2013-01-30 05:08:00,
2013-01-29 21:13:00,43.1,35.7,29.99,NNW,338,0.0,0.0,75,0.00,,---,0.00,VWS V14.00,2013-01-30 05:13:00,
2013-01-29 21:18:00,42.9,35.5,29.99,NNW,338,0.0,0.0,75,0.00,,---,0.00,VWS V14.00,2013-01-30 05:18:00,
2013-01-29 21:23:00,42.8,35.4,29.99,NNW,338,0.0,0.0,75,0.00,,---,0.00,VWS V14.00,2013-01-30 05:23:00,
2013-01-29 21:28:00,42.6,35.6,29.99,NNW,338,0.0,0.0,76,0.00,,---,0.00,VWS V14.00,2013-01-30 05:28:00,
2013-01-29 21:33:00,42.3,35.6,29.99,NNW,338,0.0,0.0,77,0.00,,---,0.00,VWS V14.00,2013-01-30 05:33:00,
2013-01-29 21:38:00,42.2,35.5,29.99,NNW,338,0.0,0.0,77,0.00,,---,0.00,VWS V14.00,2013-01-30 05:38:00,
2013-01-29 21:43:00,42.1,35.4,29.99,NNW,338,0.0,0.0,77,0.00,,---,0.00,VWS V14.00,2013-01-30 05:43:00,
2013-01-29 21:48:00,41.9,35.5,29.99,NNW,338,0.0,0.0,78,0.00,,---,0.00,VWS V14.00,2013-01-30 05:48:00,
2013-01-29 21:53:00,41.6,35.3,29.99,NNW,338,0.0,0.0,78,0.00,,---,0.00,VWS V14.00,2013-01-30 05:53:00,
2013-01-29 21:58:00,41.5,35.5,29.99,NNW,338,0.0,0.0,79,0.00,,---,0.00,VWS V14.00,2013-01-30 05:58:00,
2013-01-29 22:03:00,41.3,35.3,29.99,NNW,338,0.0,0.0,79,0.00,,---,0.00,VWS V14.00,2013-01-30 06:03:00,
2013-01-29 22:08:00,41.2,35.2,29.99,NNW,338,0.0,0.0,79,0.00,,---,0.00,VWS V14.00,2013-01-30 06:08:00,
2013-01-29 22:13:00,41.1,35.4,29.99,NNW,338,0.0,0.0,80,0.00,,---,0.00,VWS V14.00,2013-01-30 06:13:00,
2013-01-29 22:18:00,40.9,35.2,29.99,NNW,338,0.0,0.0,80,0.00,,---,0.00,VWS V14.00,2013-01-30 06:18:00,
2013-01-29 22:23:00,40.8,35.4,29.99,NNW,338,0.0,0.0,81,0.00,,---,0.00,VWS V14.00,2013-01-30 06:23:00,
2013-01-29 22:28:00,40.8,35.4,29.99,NNW,338,0.0,0.0,81,0.00,,---,0.00,VWS V14.00,2013-01-30 06:28:00,
2013-01-29 22:33:00,40.8,35.4,29.99,NNW,338,0.0,0.0,81,0.00,,---,0.00,VWS V14.00,2013-01-30 06:33:00,
2013-01-29 22:38:00,40.6,35.5,29.99,NNW,338,0.0,0.0,82,0.00,,---,0.00,VWS V14.00,2013-01-30 06:38:00,
2013-01-29 22:43:00,40.5,35.1,29.99,NNW,338,0.0,0.0,81,0.00,,---,0.00,VWS V14.00,2013-01-30 06:43:00,
2013-01-29 22:48:00,40.3,34.9,29.99,NNW,338,0.0,0.0,81,0.00,,---,0.00,VWS V14.00,2013-01-30 06:48:00,
2013-01-29 22:53:00,40.2,35.2,29.99,NNW,338,0.0,0.0,82,0.00,,---,0.00,VWS V14.00,2013-01-30 06:53:00,
2013-01-29 22:58:00,40.2,35.2,29.99,NNW,338,0.0,0.0,82,0.00,,---,0.00,VWS V14.00,2013-01-30 06:58:00,
2013-01-29 23:03:00,40.1,35.1,29.99,NNW,338,0.0,0.0,82,0.00,,---,0.00,VWS V14.00,2013-01-30 07:03:00,
2013-01-29 23:08:00,40.1,35.1,29.99,NNW,338,0.0,0.0,82,0.00,,---,0.00,VWS V14.00,2013-01-30 07:08:00,
2013-01-29 23:12:00,39.9,35.2,29.99,NNW,338,0.0,0.0,83,0.00,,---,0.00,VWS V14.00,2013-01-30 07:12:00,
2013-01-29 23:17:00,39.9,34.9,30.00,NNW,338,0.0,0.0,82,0.00,,---,0.00,VWS V14.00,2013-01-30 07:17:00,
2013-01-29 23:22:00,39.8,34.8,30.00,NNW,338,0.0,0.0,82,0.00,,---,0.00,VWS V14.00,2013-01-30 07:22:00,
2013-01-29 23:27:00,39.6,34.9,30.00,NNW,338,0.0,0.0,83,0.00,,---,0.00,VWS V14.00,2013-01-30 07:27:00,
2013-01-29 23:32:00,39.5,34.8,30.00,NNW,338,0.0,0.0,83,0.00,,---,0.00,VWS V14.00,2013-01-30 07:32:00,
2013-01-29 23:37:00,39.3,34.6,30.00,NNW,338,0.0,0.0,83,0.00,,---,0.00,VWS V14.00,2013-01-30 07:37:00,
2013-01-29 23:42:00,39.3,34.6,30.00,NNW,338,0.0,0.0,83,0.00,,---,0.00,VWS V14.00,2013-01-30 07:42:00,
2013-01-29 23:47:00,39.2,34.5,30.00,NNW,338,0.0,0.0,83,0.00,,---,0.00,VWS V14.00,2013-01-30 07:47:00,
2013-01-29 23:52:00,39.1,34.7,30.00,NNW,338,0.0,0.0,84,0.00,,---,0.00,VWS V14.00,2013-01-30 07:52:00,
2013-01-29 23:57:00,39.1,34.7,30.00,NNW,338,0.0,0.0,84,0.00,,---,0.00,VWS V14.00,2013-01-30 07:57:00,